2020-068X

Last updated on Thu Oct 29 2020 00:02:02 GMT+0000 (Coordinated Universal Time)

1 46507U 20068X 20302.39701905 -.00000059 00000-0 67007-7 0 9991 2 46507 97.6643 235.5390 0011980 149.5616 210.6303 15.01746361 4369
UTC large
Height (km)
Speed (km/s)
/
Latitude / Longitude
Inclination (degrees)
Orbital Period (minutes)
Azimuth
Elevation
Range (km)
Doppler Factor

Next 0 passes for location: London (51.5072 / 0.1276)

Sorry there are no passes over London.